Content
SEND FEEDBACK

Daily
Averages
Monthly
Summary
United States of America

HAYDEN, COLORADO


Home > North America > United States > Colorado
Elevation: 6486 feet     Latitude: 40 29N     Longitude: 107 15W

WEATHER
 
SELECT A DAY
Number of Records: 444,783;   Date Range: 1/1/95 - 7/23/14
 
SHARE

PRINT THIS DATA

[ ← Previous Day ]
WEATHER ALMANAC - JANUARY 31, 2013
[ Next Day → ]
[ °C ]   °F
Weather ElementAverageHighLow
Temperature28.6 °F33.8 °F (12:55 pm)26.6 °F (12:35 am)
Dewpoint19.8 °F23 °F (12:35 am)17.6 °F (12:15 pm)
Humidity69.7 %86 % (12:35 am)56 % (12:55 pm)
Barometer30.17 in30.24 in (10:55 am)30.02 in (12:35 am)
Wind Speed11.5 mph24.2 mph (6:55 am)
Wind Gust31.1 mph (7:35 am)
Weather ElementAverage
Visibility9.6 mi
Wind DirectionWSW (243.6 °)

Weather ElementTotal
Precipitation---
Heating Degree Days34.8 (Base 65)
Averaged from 61 records on January 31, 2013
WEATHER CONDITIONS BREAKOUT
WIND DIRECTION BREAKOUT
WEATHER BY HOUR - JANUARY 31, 2013
[ °C ]   °F
Local TimeTemperatureDewpointHumidityBarometerVisibilityWind DirectionWind SpeedGust SpeedPrecipitationEventsConditions
12:35 AM26.6 °F23.0 °F86 %30.02 in4.0 miWNW (290°)15.0 mph21.9 mphOvercast
12:55 AM26.6 °F23.0 °F86 %30.02 in8.0 miWNW (290°)12.7 mphOvercast
1:15 AM26.6 °F21.2 °F80 %30.03 in10.0 miWNW (300°)16.1 mph19.6 mphOvercast
1:55 AM26.6 °F21.2 °F80 %30.05 in3.0 miWNW (300°)15.0 mph27.6 mphOvercast
2:15 AM26.6 °F21.2 °F80 %30.06 in4.0 miWNW (300°)16.1 mphOvercast
2:35 AM26.6 °F21.2 °F80 %30.06 in10.0 miWNW (300°)15.0 mphOvercast
2:55 AM28.4 °F21.2 °F74 %30.06 in10.0 miNW (320°)16.1 mph24.2 mphOvercast
3:15 AM28.4 °F21.2 °F74 %30.07 in10.0 miNNW (330°)17.3 mphOvercast
3:55 AM28.4 °F21.2 °F74 %30.08 in10.0 miNW (320°)15.0 mphOvercast
4:15 AM28.4 °F19.4 °F69 %30.09 in10.0 miNNW (330°)12.7 mphOvercast
4:35 AM26.6 °F19.4 °F74 %30.09 in10.0 miNW (320°)16.1 mphOvercast
4:55 AM28.4 °F19.4 °F69 %30.09 in10.0 miNW (310°)17.3 mphOvercast
5:15 AM26.6 °F19.4 °F74 %30.09 in10.0 miNW (310°)17.3 mph21.9 mphOvercast
5:55 AM26.6 °F19.4 °F74 %30.10 in10.0 miNW (310°)21.9 mph29.9 mphOvercast
6:15 AM28.4 °F19.4 °F69 %30.11 in10.0 miNW (310°)21.9 mph28.8 mphOvercast
6:35 AM26.6 °F19.4 °F74 %30.12 in10.0 miWNW (300°)19.6 mphOvercast
6:55 AM28.4 °F19.4 °F69 %30.13 in10.0 miWNW (300°)24.2 mph28.8 mphOvercast
7:35 AM28.4 °F19.4 °F69 %30.15 in9.0 miWNW (300°)21.9 mph31.1 mphScattered Clouds
7:55 AM28.4 °F19.4 °F69 %30.16 in10.0 miWNW (290°)17.3 mph24.2 mphMostly Cloudy
8:15 AM28.4 °F19.4 °F69 %30.17 in10.0 miNW (310°)12.7 mphOvercast
8:35 AM28.4 °F19.4 °F69 %30.19 in10.0 miNW (320°)12.7 mph24.2 mphMostly Cloudy
8:55 AM28.4 °F19.4 °F69 %30.20 in10.0 miNW (310°)16.1 mph21.9 mphMostly Cloudy
9:15 AM28.4 °F19.4 °F69 %30.20 in10.0 miWNW (300°)18.4 mphMostly Cloudy
9:35 AM28.4 °F19.4 °F69 %30.20 in10.0 miWNW (300°)18.4 mphOvercast
9:55 AM28.4 °F19.4 °F69 %30.21 in10.0 miWNW (300°)16.1 mph20.7 mphOvercast
10:15 AM30.2 °F19.4 °F64 %30.22 in10.0 miWNW (300°)12.7 mphOvercast
10:35 AM30.2 °F19.4 °F64 %30.23 in10.0 miWest (280°)11.5 mphOvercast
10:55 AM30.2 °F19.4 °F64 %30.24 in10.0 miNW (310°)20.7 mph25.3 mphOvercast
11:15 AM30.2 °F19.4 °F64 %30.24 in10.0 miNW (310°)16.1 mphOvercast
11:35 AM30.2 °F19.4 °F64 %30.24 in10.0 miNW (320°)13.8 mphMostly Cloudy
12:15 PM30.2 °F17.6 °F60 %30.23 in10.0 miNW (320°)10.4 mphClear
12:35 PM32.0 °F19.4 °F60 %30.22 in10.0 miNNW (330°)11.5 mphClear
12:55 PM33.8 °F19.4 °F56 %30.21 in10.0 miNW (320°)12.7 mphPartly Cloudy
1:15 PM33.8 °F19.4 °F56 %30.21 in10.0 miNNW (330°)10.4 mphMostly Cloudy
1:35 PM33.8 °F19.4 °F56 %30.20 in10.0 miNNW (340°)10.4 mph16.1 mphMostly Cloudy
2:15 PM32.0 °F21.2 °F64 %30.20 in10.0 miNorth (350°)11.5 mphPartly Cloudy
2:35 PM32.0 °F21.2 °F64 %30.19 in10.0 miNorth (360°)11.5 mphScattered Clouds
2:55 PM32.0 °F21.2 °F64 %30.19 in10.0 miNorth (360°)12.7 mphPartly Cloudy
3:15 PM32.0 °F19.4 °F60 %30.20 in10.0 miNorth (10°)12.7 mphScattered Clouds
3:35 PM30.2 °F19.4 °F64 %30.20 in10.0 miNorth (360°)11.5 mphMostly Cloudy
3:55 PM30.2 °F21.2 °F69 %30.20 in10.0 miNorth (10°)12.7 mphMostly Cloudy
4:15 PM30.2 °F19.4 °F64 %30.20 in10.0 miNorth (360°)13.8 mphOvercast
4:35 PM30.2 °F19.4 °F64 %30.20 in10.0 miNorth (350°)11.5 mphOvercast
4:55 PM30.2 °F19.4 °F64 %30.20 in10.0 miNorth (360°)10.4 mphOvercast
5:15 PM30.2 °F19.4 °F64 %30.20 in10.0 miNorth (350°)4.6 mphOvercast
5:35 PM28.4 °F19.4 °F69 %30.20 in10.0 miCalmMostly Cloudy
6:15 PM26.6 °F17.6 °F69 %30.22 in10.0 miSouth (170°)5.8 mphOvercast
6:35 PM28.4 °F19.4 °F69 %30.22 in10.0 miCalmMostly Cloudy
6:55 PM28.4 °F19.4 °F69 %30.23 in10.0 miCalmMostly Cloudy
7:15 PM26.6 °F19.4 °F74 %30.23 in10.0 miESE (110°)4.6 mphOvercast
7:35 PM26.6 °F19.4 °F74 %30.24 in10.0 miSSE (160°)3.5 mphOvercast
7:55 PM26.6 °F19.4 °F74 %30.24 in10.0 miSSE (160°)6.9 mphOvercast
8:15 PM26.6 °F19.4 °F74 %30.24 in10.0 miCalmOvercast
8:35 PM26.6 °F19.4 °F74 %30.24 in10.0 miCalmOvercast
9:15 PM26.6 °F19.4 °F74 %30.23 in10.0 miCalmOvercast
9:35 PM26.6 °F19.4 °F74 %30.23 in10.0 miESE (110°)3.5 mphOvercast
9:55 PM26.6 °F19.4 °F74 %30.23 in10.0 miSSE (150°)4.6 mphOvercast
10:15 PM26.6 °F19.4 °F74 %30.23 in10.0 miSouth (170°)3.5 mphOvercast
10:35 PM26.6 °F19.4 °F74 %30.23 in10.0 miCalmOvercast
11:15 PM26.6 °F19.4 °F74 %30.22 in10.0 miCalmOvercast
11:35 PM26.6 °F19.4 °F74 %30.22 in10.0 miSE (130°)4.6 mphOvercast
Hourly data recorded from KHDN, located miles away from Hayden, Colorado







STORIES FROM OUR PARTNERS